519  
FPUS82 KCHS 190725  
OPUCHS  
 
TEST   
..KCHS/KSAV GATEWAY OBSERVATIONS
 
TEST  
NATIONAL WEATHER SERVICE CHARLESTON SC  
300 AM EDT FRI AUG 19 2022  
 
NOTE: "FAIR" INDICATES FEW OR NO CLOUDS BELOW 12,000 FEET WITH NO  
SIGNIFICANT WEATHER AND/OR OBSTRUCTIONS TO VISIBILITY.  
 
SCZ050-WAZ558-NCZ071-TXZ119-213-PAZ071-DCZ001-FLZ074-172-MI076-  
NYZ176-178-MAZ016-IL014-TNZ027-NJZ106-GAZ044-MD014-190800-  
   
..GATEWAY OBSERVATIONS FOR CHARLESTON INTERNATIONAL
 
 
 
CITY SKY/WX TMP DP RH WIND PRES REMARKS  
CHAS AIRPORT MOCLDY 76 75 97 CALM 29.98S  
SEATTLE CLOUDY 79 66 64 CALM 29.88F  
CHARLOTTE PTCLDY 69 65 86 S3 30.04S  
DALLAS DFW MOCLDY 76 71 85 E5 29.94F  
DALLAS LOVE MOCLDY 75 71 87 SE6 29.95F  
PHILLADELPHIA CLEAR 73 65 75 SW5 30.02R  
WASH NATIONAL CLEAR 73 67 81 CALM 30.03S  
BALTIMORE CLEAR 66 60 81 CALM 30.02S  
MIAMI CLEAR 82 74 76 SW3 29.99S  
DETROIT PTCLDY 64 61 90 S5 30.00S  
NEWARK PTCLDY 72 55 55 W5 29.99R  
LAGUARDIA PTCLDY 76 55 48 W3 29.98R  
J F K PTCLDY 73 57 57 W8 29.99R  
BOSTON LOGAN PTCLDY 70 56 61 W12 29.92R  
FT. LAUDERDALE PTCLDY 82 76 81 SW3 29.98R  
CHICAGO O'HARE PTCLDY 69 60 73 S6 29.95S  
CHICAGO MIDWAY PTCLDY 72 60 66 S7 29.96R  
HOUSTON BUSH MOCLDY 75 75 100 CALM 29.92F  
HOUSTON HOBBY MOCLDY 76 72 87 SE3 29.92S  
NASHVILLE PTCLDY 69 61 75 CALM 30.00S  
ATLANTA MOCLDY 74 69 85 E5 30.00S  
LONDON HEATHRW MOSUNNY 68 59 73 W13 29.94S  
 

 
 
GAZ044-118-TXZ119-213-NCZ071-DCZ001-MDZ014-506-PAZ021-071-NJZ106-  
NYZ176-178-MAZ106-OHZ011-021-055-MIZ076-KYZ091-ILZ014-INZ047-  
MNZ060-ONZ431-190800-  
   
..GATEWAY OBSERVATIONS FOR SAVANNAH INTERNATIONAL
 
 
 
CITY SKY/WX TMP DP RH WIND PRES REMARKS  
SAVANNAH ARPT MOCLDY 74 72 93 CALM 29.98S  
ATLANTA MOCLDY 74 69 85 E5 30.00S  
CHARLOTTE PTCLDY 69 65 86 S3 30.04S  
DALLAS DFW MOCLDY 76 71 85 E5 29.94F  
HOUSTON BUSH MOCLDY 75 75 100 CALM 29.92F  
WASH NATIONAL CLEAR 73 67 81 CALM 30.03S  
WASH DULLES CLEAR 65 62 90 CALM 30.03S  
BALTIMORE CLEAR 66 60 81 CALM 30.02S  
PHILADELPHIA CLEAR 73 65 75 SW5 30.02R  
NEWARK PTCLDY 72 55 55 W5 29.99R  
LAGUARDIA PTCLDY 76 55 48 W3 29.98R  
J F K PTCLDY 73 57 57 W8 29.99R  
BOSTON PTCLDY 70 56 61 W12 29.92R  
PITTSBURG CLEAR 61 57 87 CALM 30.03S  
AKRON PTCLDY 65 59 81 S3 30.04R  
CLEVELAND PTCLDY 62 56 80 S5 30.00S  
CINCINNATI CLEAR 67 60 78 CALM 30.02R  
COLUMBUS CLEAR 63 61 93 CALM 30.02S  
DETROIT PTCLDY 64 61 90 S5 30.00S  
CHICAGO O'HARE PTCLDY 69 60 73 S6 29.95S  
MINNEAPOLIS MOCLDY 64 60 87 SW9 29.81S  
INDIANAPOLIS PTCLDY 64 60 87 W6 30.01S  
TORONTO CANADA CLEAR 64 61 88 W5 29.97R  
 

 
 
 
CLICK HERE TO GO TO PREVIOUS BULLETINS.

The Nexlab SC Page
The Nexlab GA Page Main Text Page